Regional Weather Roundup
Issued by NWS

Home | Current Version | Previous Version | Text Only | Print | Product List | Glossary Off
Versions: 1 2 3 4 5 6 7 8 9 10 11 12 13 14 15 16 17 18 19 20 21 22 23 24 25 26 27 28 29 30 31 32 33 34 35 36 37 38 39 40 41 42 43 44 45 46 47 48 49 50

000
ASUS43 KOAX 231610
RWRNE

WEATHER ROUNDUP FOR NEBRASKA
NATIONAL WEATHER SERVICE OMAHA NE
1100 AM CDT SUN APR 23 2017

NOTES: SATELLITE DATA IS BEING USED TO AUGMENT CLOUD COVER ABOVE
       12000 FEET.
       "FAIR" INDICATES FEW OR NO CLOUDS BELOW 12,000 FEET WITH NO
       SIGNIFICANT WEATHER AND/OR OBSTRUCTIONS TO VISIBILITY.

  * THESE STATIONS DO NOT REPORT WEATHER SUCH AS RAIN...SNOW OR FOG.

NEZ001>004-019>022-054>056-231700-
NEBRASKA PANHANDLE

CITY           SKY/WX    TMP DP  RH WIND       PRES   REMARKS
SCOTTSBLUFF    CLOUDY    57  36  45 MISG      29.90F
ALLIANCE       SUNNY     56  36  47 S23       29.90F
CHADRON        MOSUNNY   61  36  39 S20       29.84F
KIMBALL        CLOUDY    54  40  59 SW10      29.95F
SIDNEY         CLOUDY    53  37  54 S23G30    29.97F
$$

NEZ057>060-069>072-079>082-231700-
SOUTHWEST NEBRASKA

CITY           SKY/WX    TMP DP  RH WIND       PRES   REMARKS
NORTH PLATTE   SUNNY     59  31  34 SW20G26   30.04F
IMPERIAL       SUNNY     56  34  43 S23G31    30.04F
LEXINGTON      SUNNY     60  28  30 SW20G25   30.10F
MCCOOK         SUNNY     60  33  36 S22G30    30.09F
OGALLALA       SUNNY     60  34  37 S21G28    30.00F
$$

NEZ005>010-023>029-035>040-094-231700-
NORTH CENTRAL NEBRASKA

CITY           SKY/WX    TMP DP  RH WIND       PRES   REMARKS
VALENTINE      MOSUNNY   64  29  26 S24G37    29.92F
AINSWORTH      SUNNY     59  34  38 S24G32    29.96F
BROKEN BOW     SUNNY     59  28  30 S26G36    30.06F
O`NEILL        SUNNY     61  26  25 S23G36    30.02F
ORD            SUNNY     60  29  30 S20G30    30.07F
THEDFORD       MOSUNNY   60  31  34 S22G35    29.99F
$$

NEZ041-046>049-061>064-073>077-083>087-231700-
SOUTH CENTRAL NEBRASKA

CITY           SKY/WX    TMP DP  RH WIND       PRES   REMARKS
GRAND ISLAND   SUNNY     62  29  28 S16G25    30.14S
AURORA         SUNNY     63  28  26 SW15G24   30.13S
HASTINGS       SUNNY     61  27  27 S18G24    30.14F
HEBRON         SUNNY     63  28  26 S10G16    30.15F
HOLDREGE       SUNNY     59  29  31 SW17G26   30.13S
KEARNEY *      SUNNY     61  27  27 SW17G26   30.13F
YORK           SUNNY     63  28  27 SW14G20   30.14F
$$

NEZ011>018-030>034-042>045-231700-
NORTHEAST NEBRASKA

CITY           SKY/WX    TMP DP  RH WIND       PRES   REMARKS
NORFOLK        SUNNY     63  30  28 SW21G28   30.08F
ALBION         SUNNY     62  30  29 SW24      30.10F
BLAIR          SUNNY     63  29  27 S15       30.13S
FREMONT        SUNNY     64  32  31 SW12      30.13F
TEKAMAH        SUNNY     65  35  33 SW16      30.12F
WAYNE          MOSUNNY   63  35  35 SW18G25   30.08F
$$

NEZ050>053-065>068-078-088>093-231700-
SOUTHEAST NEBRASKA

CITY           SKY/WX    TMP DP  RH WIND       PRES   REMARKS
LINCOLN        SUNNY     64  30  27 S12       30.15F
OMAHA EPPLEY   MOSUNNY   64  29  26 SW10      30.14F
BEATRICE       SUNNY     63  32  31 S12       30.15F
FALLS CITY     SUNNY     62  35  36 VRB5      30.16F
NEBRASKA CITY  SUNNY     62  20  20 SW10      30.16S
PLATTSMOUTH    SUNNY     64  24  22 S6        30.15S
$$

NEZ044-045-051>053-067-231700-
OMAHA AREA

CITY           SKY/WX    TMP DP  RH WIND       PRES   REMARKS
OMAHA EPPLEY   MOSUNNY   64  29  26 SW10      30.14F
BLAIR          SUNNY     63  29  27 S15       30.13S
FREMONT        SUNNY     64  32  31 SW12      30.13F
MILLARD        SUNNY     65  33  30 W9        30.14S
OFFUTT AFB     SUNNY     64  35  34 S8        30.13F
PLATTSMOUTH    SUNNY     64  24  22 S6        30.15S
WAHOO          FAIR      64  30  27 SW12      30.14S
$$



USA.gov is the U.S. government's official web portal to all federal, state and local government web resources and services.